[[{"header":{"parameterUnit":"m.s-1","parameterCategory":1,"la1":30.2991,"la2":30.254,"lo1":-89.0895,"lo2":-89.0444,"dy":0.0017,"dx":0.0017,"nx":28,"ny":28,"refTime":"2024-02-12T03:00:00:Z","depth":0,"parameterNumber":2,"parameterNumberName":"U-component_of_WINDS"},"data":[0,0,0,0,0,0,0,0,0,0,0,0,0,0,0,0,0,0,0,0,0,0,0,0,0,0,0,0,0,0,0,0,0,0,0,0,0,0,0,0,0,0,0,0,0,0,0,0,0,0,0,0,0,0,0,0,0,0,6.9975,6.9976,0,7.0015,7.0016,7.0016,6.9944,6.9942,6.9939,6.9937,6.9984,6.9987,6.9991,0,0,0,0,0,0,0,0,0,0,0,0,0,6.9845,6.9848,6.9975,6.9976,6.9976,7.0015,7.0016,7.0016,6.9944,6.9941,6.9939,6.9936,6.9983,6.9987,6.9991,0,0,0,0,0,0,0,0,0,0,0,0,0,6.9895,6.9849,6.9975,6.9945,6.9943,7.0015,7.0016,7.0016,6.9945,6.9941,6.9938,6.9934,6.9981,6.9986,6.9992,7.0097,0,0,7.0008,7.001,0,0,0,0,0,0,0,0,6.9892,6.99,6.9949,6.9947,6.9945,6.9971,6.9987,7.0044,6.9946,6.9944,6.9937,6.9933,6.9983,6.9988,7.0003,7.0099,7.0101,7.0008,7.0011,7.0014,7.0015,0,0,0,0,0,0,0,6.9889,6.9898,6.9991,6.995,6.9947,6.9932,6.9935,6.9997,6.9984,6.9944,6.9939,6.9944,6.9981,6.9999,7.0004,7.0102,7.0008,7.0013,7.0016,7.0018,7.0292,7.0296,0,0,0,0,0,0,6.9888,6.9895,6.999,6.9992,6.9909,6.9937,6.9941,6.9966,6.9983,6.9982,6.9948,6.9941,6.9991,6.9998,7.0005,7.0133,7.0014,7.0019,7.0022,7.0288,7.0293,7.0297,0,0,0,0,0,0,6.9886,6.9897,6.9988,6.9943,6.9953,6.9943,6.9973,6.9969,6.9986,6.9985,6.9983,6.9967,6.9989,6.9998,7.0076,7.0134,7.0021,7.0026,7.0283,7.029,7.0295,7.0388,0,0,0,0,0,0,6.9882,6.9897,6.9935,6.9944,6.9956,7.0056,6.9976,6.9972,6.9995,6.9987,7.0003,7.0003,6.9987,7.0068,7.0081,7.0139,7.003,7.0278,7.0286,7.0293,7.038,7.0397,7.0411,0,0,0,0,0,6.9878,6.996,6.9937,6.9949,7.0002,7.0059,7.0066,7.0044,7.0,7.0039,7.004,7.0002,7.0125,7.0077,7.009,7.0151,7.0274,7.0284,7.0293,7.0373,7.0394,7.0411,0,0,0,0,0,0,6.9959,6.996,6.9935,7.0022,7.0041,7.0047,7.0096,7.0066,7.0099,7.009,7.0063,7.0068,7.0152,7.0159,7.0105,7.0257,7.0193,7.0205,7.0249,7.0269,7.0284,7.0282,7.0034,0,0,0,0,0,6.9986,7.003,7.003,7.0106,7.0117,7.0105,7.0129,7.011,7.013,7.0138,7.0143,7.0166,7.021,7.0239,7.0279,7.038,7.0386,7.0429,7.0445,7.0458,7.047,7.0528,7.0549,7.0328,7.0328,7.0328,0,0,7.0044,7.0051,7.008,7.0123,7.0135,7.0184,7.0112,7.0166,7.0203,7.0147,7.022,7.0226,7.0249,7.034,7.0381,7.0349,7.0532,7.047,7.048,7.0485,7.054,7.0561,7.058,7.0334,7.0333,7.0332,0,0,7.0176,7.0183,7.025,7.0264,7.0284,7.0276,7.0292,7.0303,7.0304,7.0377,7.0338,7.0383,7.0458,7.0477,7.0497,7.064,7.0609,7.0654,7.0736,7.0794,7.0811,7.0827,7.0881,7.0901,7.0665,7.0665,7.0666,0,7.0246,7.0315,7.0288,7.0346,7.0368,7.0318,7.0387,7.0403,7.0436,7.0454,7.0417,7.0513,7.0525,7.0622,7.0657,7.0673,7.0694,7.0652,7.081,7.0826,7.084,7.0891,7.0912,7.0671,7.067,7.067,7.0669,0,7.0403,7.0452,7.0504,7.0536,7.0564,7.0627,7.0612,7.0644,7.0624,7.0621,7.07,7.0712,7.0756,7.0777,7.0758,7.0873,7.0853,7.0814,7.0749,7.0867,7.0915,7.0935,7.0679,7.0677,7.0675,7.0674,0,0,7.0586,7.0603,7.0623,7.0639,7.0658,7.0697,7.076,7.0801,7.0831,7.0856,7.0911,7.0977,7.0942,7.0965,7.0948,7.0998,7.1115,7.0953,7.0953,7.0985,7.1247,7.1279,7.1302,7.1094,7.1097,7.11,7.1247,0,7.0719,7.0825,7.0804,7.0909,7.0956,7.0911,7.0967,7.0987,7.0986,7.1029,7.1029,7.1078,7.1026,7.104,7.1087,7.1091,7.1168,7.108,7.1148,7.1151,7.1146,7.1326,7.1359,7.1496,7.1265,7.1268,7.127,0,7.0888,7.0919,7.1029,7.1044,7.1063,7.1113,7.1151,7.1191,7.1215,7.1211,7.1238,7.1213,7.128,7.1213,7.1307,7.1247,7.1275,7.1281,7.1286,7.1293,7.1219,7.1342,7.1539,7.1561,7.1299,7.1297,7.1295,0,7.1015,7.1084,7.116,7.1174,7.1192,7.1229,7.1239,7.1258,7.1286,7.132,7.1339,7.1381,7.1405,7.144,7.1429,7.1381,7.1527,7.1458,7.1529,7.153,7.1564,7.1562,7.1771,7.1577,7.1577,7.1576,7.1576,0,7.1167,7.1237,7.1217,7.1264,7.1342,7.1319,7.1398,7.1403,7.1421,7.1471,7.1434,7.1482,7.1463,7.1511,7.1503,7.1584,7.1595,7.1597,7.1594,7.1601,7.1602,7.162,7.1612,7.1582,7.158,7.1579,7.1578,0,7.1323,7.1312,7.1392,7.1403,7.1408,7.1466,7.1477,7.1522,7.1519,7.1583,7.1597,7.1594,7.1649,7.164,7.1701,7.1696,7.1799,7.1783,7.1791,7.1788,7.1861,7.1856,7.2091,7.2123,7.1906,7.1908,7.1909,0,7.1422,7.1475,7.1492,7.1522,7.1535,7.1583,7.1611,7.1591,7.1622,7.1654,7.1697,7.1748,7.1788,7.1879,7.1885,7.1932,7.192,7.1999,7.1927,7.1934,7.1925,7.1923,7.193,7.2014,7.2017,7.2019,7.202,0,7.1601,7.1594,7.1634,7.1674,7.1708,7.1739,7.1767,7.1794,7.1777,7.1815,7.1869,7.19,7.1963,7.2016,7.2062,7.2075,7.2047,7.2043,7.2062,7.2072,7.2075,7.2078,7.1833,7.2038,7.2036,7.2035,7.2034,7.2033,7.1734,7.178,7.18,7.1848,7.1866,7.1894,7.1938,7.1941,7.1986,7.2034,7.202,7.2084,7.2109,7.2167,7.2186,7.2238,7.2209,7.2236,7.2244,7.2252,7.2262,7.2065,7.2246,7.2245,7.2245,7.2244,7.2244,0,7.1914,7.1925,7.1969,7.2009,7.2047,7.2014,7.2044,7.2079,7.2135,7.216,7.22,7.2266,7.2318,7.2328,7.2378,7.2418,7.2407,7.2433,7.2431,7.2436,7.2283,7.2263,7.2441,7.2441,7.2441,7.2441,7.2441,7.2441,7.2013,7.209,7.2086,7.2174,7.2184,7.2245,7.2265,7.2292,7.2312,7.2386,7.2428,7.2434,7.2454,7.2506,7.2554,7.2556,7.2578,7.261,7.2607,7.2465,7.2446,7.2427,7.2408,7.2614,7.2614,7.2755,7.2757,7.2758]},{"header":{"parameterUnit":"m.s-1","parameterCategory":1,"la1":30.2991,"la2":30.254,"lo1":-89.0895,"lo2":-89.0444,"dy":0.0017,"dx":0.0017,"nx":28,"ny":28,"refTime":"2024-02-12T03:00:00:Z","depth":0,"parameterNumber":3,"parameterNumberName":"V-component_of_WINDS"},"data":[0,0,0,0,0,0,0,0,0,0,0,0,0,0,0,0,0,0,0,0,0,0,0,0,0,0,0,0,0,0,0,0,0,0,0,0,0,0,0,0,0,0,0,0,0,0,0,0,0,0,0,0,0,0,0,0,0,0,-0.5313,-0.5313,0,-0.538,-0.5381,-0.5381,-0.5472,-0.5473,-0.5475,-0.5476,-0.5544,-0.5544,-0.5545,0,0,0,0,0,0,0,0,0,0,0,0,0,-0.5263,-0.5264,-0.5313,-0.5314,-0.5314,-0.538,-0.5381,-0.5382,-0.5471,-0.5473,-0.5475,-0.5477,-0.5544,-0.5544,-0.5545,0,0,0,0,0,0,0,0,0,0,0,0,0,-0.5303,-0.5264,-0.5313,-0.5367,-0.5373,-0.5379,-0.5381,-0.5382,-0.5471,-0.5473,-0.5475,-0.5478,-0.5544,-0.5544,-0.5545,-0.5503,0,0,-0.5547,-0.5547,0,0,0,0,0,0,0,0,-0.5301,-0.5305,-0.5358,-0.5363,-0.537,-0.542,-0.5388,-0.5423,-0.547,-0.5434,-0.5476,-0.5479,-0.5501,-0.5505,-0.5513,-0.5507,-0.551,-0.5547,-0.5547,-0.5547,-0.5548,0,0,0,0,0,0,0,-0.5298,-0.5302,-0.5339,-0.5359,-0.5366,-0.5389,-0.5397,-0.5395,-0.5454,-0.5437,-0.5444,-0.545,-0.5504,-0.5512,-0.5515,-0.5511,-0.5547,-0.5547,-0.5548,-0.5548,-0.5477,-0.5475,0,0,0,0,0,0,-0.5287,-0.5299,-0.5337,-0.5341,-0.534,-0.5388,-0.5397,-0.5401,-0.5454,-0.5464,-0.5448,-0.5454,-0.551,-0.5514,-0.5518,-0.5474,-0.5547,-0.5548,-0.5548,-0.5479,-0.5476,-0.5474,0,0,0,0,0,0,-0.5285,-0.5289,-0.5334,-0.5322,-0.533,-0.5386,-0.539,-0.5401,-0.5409,-0.5463,-0.5474,-0.5445,-0.5512,-0.5517,-0.5507,-0.5478,-0.5548,-0.5549,-0.5482,-0.5478,-0.5475,-0.5386,0,0,0,0,0,0,-0.5284,-0.5288,-0.5273,-0.5321,-0.533,-0.5322,-0.5389,-0.5401,-0.541,-0.5418,-0.5463,-0.5472,-0.5514,-0.5506,-0.5508,-0.548,-0.5549,-0.5485,-0.548,-0.5476,-0.5391,-0.538,-0.5369,0,0,0,0,0,-0.5282,-0.5244,-0.5271,-0.5275,-0.5312,-0.532,-0.5325,-0.5374,-0.5407,-0.5392,-0.5427,-0.5471,-0.5481,-0.5504,-0.5507,-0.5479,-0.5487,-0.5481,-0.5477,-0.5396,-0.5382,-0.537,0,0,0,0,0,0,-0.519,-0.5251,-0.5282,-0.5259,-0.5284,-0.5335,-0.5318,-0.5357,-0.5372,-0.5379,-0.5439,-0.5449,-0.5432,-0.5455,-0.5479,-0.5443,-0.549,-0.5486,-0.5428,-0.5415,-0.5404,-0.5399,-0.555,0,0,0,0,0,-0.5167,-0.5169,-0.5223,-0.5197,-0.5208,-0.526,-0.5266,-0.5302,-0.5329,-0.534,-0.5374,-0.5399,-0.5409,-0.5413,-0.5424,-0.5396,-0.5407,-0.5378,-0.5367,-0.5358,-0.5353,-0.5341,-0.5329,-0.5457,-0.5457,-0.5457,0,0,-0.512,-0.5154,-0.5151,-0.518,-0.5203,-0.5204,-0.5269,-0.5266,-0.5268,-0.534,-0.5333,-0.5359,-0.5391,-0.5372,-0.5365,-0.5391,-0.532,-0.5351,-0.5343,-0.5344,-0.5335,-0.5323,-0.5312,-0.5454,-0.5454,-0.5455,0,0,-0.5034,-0.506,-0.5042,-0.5065,-0.5099,-0.5135,-0.5131,-0.5177,-0.5197,-0.5191,-0.5246,-0.5249,-0.5263,-0.5284,-0.5297,-0.5222,-0.5263,-0.5224,-0.5166,-0.5154,-0.5144,-0.5135,-0.511,-0.51,-0.5219,-0.5219,-0.5218,0,-0.4971,-0.4974,-0.5028,-0.5023,-0.5035,-0.5101,-0.5084,-0.5103,-0.514,-0.5146,-0.5174,-0.5195,-0.5221,-0.5209,-0.5191,-0.5198,-0.5196,-0.5219,-0.5141,-0.5133,-0.5126,-0.5102,-0.5092,-0.5214,-0.5214,-0.5215,-0.5215,0,-0.4896,-0.4897,-0.4879,-0.4913,-0.4923,-0.4912,-0.4965,-0.4968,-0.5004,-0.5036,-0.5031,-0.5065,-0.5085,-0.5085,-0.5119,-0.5078,-0.5093,-0.513,-0.5179,-0.5108,-0.5087,-0.5078,-0.5207,-0.5208,-0.521,-0.5211,0,0,-0.4753,-0.4819,-0.4811,-0.4828,-0.4872,-0.4875,-0.4867,-0.4888,-0.489,-0.4913,-0.4909,-0.4921,-0.4956,-0.4971,-0.5008,-0.4997,-0.4938,-0.5036,-0.5038,-0.5017,-0.4896,-0.4868,-0.4857,-0.4966,-0.4964,-0.4963,-0.4894,0,-0.4676,-0.4667,-0.4716,-0.4695,-0.4697,-0.4762,-0.4756,-0.4782,-0.4813,-0.4821,-0.4856,-0.4863,-0.4908,-0.4918,-0.491,-0.4946,-0.4914,-0.4952,-0.4963,-0.4963,-0.4953,-0.4846,-0.4816,-0.4749,-0.4886,-0.4885,-0.4884,0,-0.4585,-0.4604,-0.4583,-0.463,-0.4633,-0.4626,-0.465,-0.4656,-0.4688,-0.4712,-0.4729,-0.4773,-0.477,-0.4817,-0.4815,-0.484,-0.4848,-0.4866,-0.4865,-0.4868,-0.4919,-0.4846,-0.4729,-0.4719,-0.4871,-0.4872,-0.4873,0,-0.4484,-0.4505,-0.4495,-0.4508,-0.4562,-0.4556,-0.4579,-0.4613,-0.4623,-0.4644,-0.4651,-0.4671,-0.4682,-0.4697,-0.4746,-0.4775,-0.4739,-0.4789,-0.4759,-0.4758,-0.4748,-0.4748,-0.463,-0.4752,-0.4752,-0.4752,-0.4753,0,-0.4394,-0.4378,-0.4451,-0.4445,-0.443,-0.4487,-0.4471,-0.45,-0.4531,-0.4532,-0.4589,-0.4589,-0.4653,-0.4661,-0.4699,-0.4693,-0.4697,-0.4717,-0.4727,-0.4712,-0.4709,-0.4718,-0.4724,-0.475,-0.475,-0.4751,-0.4751,0,-0.4278,-0.4326,-0.432,-0.4373,-0.4385,-0.4372,-0.4418,-0.4415,-0.445,-0.4451,-0.4455,-0.451,-0.4523,-0.4573,-0.4597,-0.4623,-0.4604,-0.4624,-0.4593,-0.46,-0.4567,-0.457,-0.4451,-0.4439,-0.4567,-0.4566,-0.4565,0,-0.4217,-0.4207,-0.4259,-0.4264,-0.4284,-0.4291,-0.4302,-0.4359,-0.4367,-0.4405,-0.4398,-0.4415,-0.4431,-0.4449,-0.4491,-0.4511,-0.4532,-0.4489,-0.4535,-0.4521,-0.4533,-0.4533,-0.4533,-0.4479,-0.4478,-0.4476,-0.4475,0,-0.4105,-0.4129,-0.4142,-0.4164,-0.4175,-0.4195,-0.4218,-0.4219,-0.4282,-0.429,-0.4303,-0.4316,-0.4342,-0.4358,-0.4385,-0.441,-0.4453,-0.446,-0.4455,-0.4439,-0.4422,-0.4432,-0.4567,-0.4463,-0.4464,-0.4465,-0.4466,-0.4466,-0.4016,-0.401,-0.4046,-0.4059,-0.4083,-0.4103,-0.4104,-0.414,-0.4152,-0.4177,-0.421,-0.422,-0.4255,-0.4296,-0.4317,-0.4326,-0.435,-0.4341,-0.4339,-0.4336,-0.4329,-0.442,-0.4331,-0.4331,-0.4332,-0.4332,-0.4332,0,-0.3907,-0.3933,-0.3945,-0.3976,-0.3986,-0.4026,-0.4055,-0.4061,-0.4069,-0.4098,-0.4113,-0.413,-0.4147,-0.4192,-0.4214,-0.4213,-0.4233,-0.4217,-0.4217,-0.4223,-0.4306,-0.4309,-0.42,-0.42,-0.42,-0.42,-0.42,-0.42,-0.3851,-0.3845,-0.3874,-0.388,-0.3907,-0.3917,-0.393,-0.395,-0.3973,-0.3989,-0.4004,-0.4033,-0.4069,-0.4094,-0.4112,-0.4125,-0.4131,-0.4108,-0.4127,-0.4204,-0.4216,-0.4229,-0.4232,-0.4108,-0.4108,-0.4043,-0.4043,-0.4042]}]]